ラインムート第2彗星

44P/Reinmuth 2 (2022)

English version
Home page
Updated on May 3, 2020

---------------------------------------------------------------------

・ プロフィール

・ 軌道要素

Epoch 2022 Apr. 11.0 TT = JDT 2459680.5
T 2022 Apr. 23.27796 TT                                 Rudenko
q   2.1126830            (2000.0)            P               Q
n   0.13891241     Peri.   58.08755     +0.95959535     +0.26357570
a   3.6923996      Node   286.47076     -0.28014130     +0.86203430
e   0.4278293      Incl.    5.89625     -0.02641241     +0.43292577
P   7.10
From 518 observations 2014 May 1-2020 Apr. 22, mean residual 0".6.
     Nongravitational parameters A1 = -0.06, A2 = -0.0597.

・ 星図

・ 光度変化

        m1 = 10.0 + 5 logΔ + 15.0 log r  [ ,0]  (              〜2022年 4月23日)
        m1 = 11.6 + 5 logΔ + 10.0 log r  [0, ]  (2022年 4月23日〜              )

---------------------------------------------------------------------

軌道要素はM.P.E.C. 2020-H235に掲載されたものです。
星図はステラナビゲータ Ver.10 (アストロアーツ) で作成したものです。
光度グラフはComet for Windowsで作成したものです。

---------------------------------------------------------------------

Copyright(C) Seiichi Yoshida (comet@aerith.net). All rights reserved.